[[{"header":{"parameterUnit":"m.s-1","parameterCategory":1,"la1":30.2991,"la2":30.254,"lo1":-89.0895,"lo2":-89.0444,"dy":0.0017,"dx":0.0017,"nx":28,"ny":28,"refTime":"2025-02-04T03:00:00:Z","depth":0,"parameterNumber":2,"parameterNumberName":"U-component_of_WINDS"},"data":[0,0,0,0,0,0,0,0,0,0,0,0,0,0,0,0,0,0,0,0,0,0,0,0,0,0,0,0,0,0,0,0,0,0,0,0,0,0,0,0,0,0,0,0,0,0,0,0,0,0,0,0,0,0,0,0,0,0,0.1655,0.1655,0,0.1669,0.167,0.167,0.1689,0.1689,0.1689,0.1689,0.1703,0.1703,0.1703,0,0,0,0,0,0,0,0,0,0,0,0,0,0.1642,0.1642,0.1655,0.1655,0.1655,0.1669,0.167,0.167,0.1689,0.1689,0.1689,0.169,0.1703,0.1703,0.1703,0,0,0,0,0,0,0,0,0,0,0,0,0,0.1651,0.1642,0.1655,0.1666,0.1668,0.1669,0.167,0.167,0.1688,0.1689,0.1689,0.169,0.1703,0.1703,0.1703,0.1694,0,0,0.1703,0.1703,0,0,0,0,0,0,0,0,0.1651,0.1652,0.1664,0.1666,0.1667,0.1678,0.167,0.1678,0.1688,0.168,0.1689,0.169,0.1694,0.1695,0.1697,0.1695,0.1696,0.1703,0.1704,0.1704,0.1704,0,0,0,0,0,0,0,0.165,0.1651,0.1661,0.1665,0.1666,0.167,0.1672,0.1672,0.1684,0.1681,0.1683,0.1684,0.1695,0.1696,0.1697,0.1696,0.1703,0.1704,0.1704,0.1704,0.1687,0.1687,0,0,0,0,0,0,0.1648,0.165,0.166,0.1661,0.166,0.167,0.1672,0.1674,0.1684,0.1687,0.1684,0.1685,0.1696,0.1697,0.1698,0.1688,0.1704,0.1704,0.1704,0.1688,0.1687,0.1686,0,0,0,0,0,0,0.1647,0.1649,0.166,0.1656,0.1658,0.167,0.1671,0.1674,0.1675,0.1686,0.1689,0.1683,0.1696,0.1697,0.1695,0.1688,0.1704,0.1704,0.1688,0.1687,0.1687,0.1668,0,0,0,0,0,0,0.1647,0.1648,0.1645,0.1656,0.1658,0.1657,0.1671,0.1674,0.1676,0.1677,0.1686,0.1688,0.1697,0.1695,0.1695,0.1689,0.1704,0.1689,0.1688,0.1687,0.1669,0.1666,0.1664,0,0,0,0,0,0.1647,0.1639,0.1645,0.1646,0.1655,0.1657,0.1658,0.1668,0.1675,0.1672,0.1679,0.1688,0.1689,0.1694,0.1695,0.1688,0.1689,0.1688,0.1687,0.167,0.1667,0.1664,0,0,0,0,0,0,0.1627,0.1641,0.1648,0.1644,0.1649,0.166,0.1656,0.1665,0.1668,0.1669,0.1681,0.1683,0.1679,0.1684,0.1689,0.168,0.169,0.1689,0.1677,0.1674,0.1672,0.1671,0.1704,0,0,0,0,0,0.1623,0.1624,0.1635,0.1631,0.1633,0.1644,0.1645,0.1653,0.1659,0.1661,0.1668,0.1673,0.1674,0.1675,0.1676,0.167,0.1672,0.1666,0.1663,0.1661,0.166,0.1656,0.1653,0.1683,0.1683,0.1683,0,0,0.1613,0.1621,0.162,0.1627,0.1632,0.1632,0.1646,0.1645,0.1645,0.1661,0.1659,0.1664,0.167,0.1665,0.1664,0.1669,0.1652,0.166,0.1658,0.1658,0.1655,0.1652,0.1649,0.1682,0.1682,0.1682,0,0,0.1595,0.1601,0.1598,0.1603,0.161,0.1618,0.1617,0.1626,0.163,0.1629,0.164,0.164,0.1642,0.1646,0.1648,0.1632,0.164,0.1632,0.1619,0.1615,0.1613,0.1611,0.1605,0.1602,0.1631,0.1631,0.1631,0,0.1582,0.1583,0.1595,0.1594,0.1596,0.161,0.1607,0.161,0.1618,0.1619,0.1625,0.1628,0.1633,0.1629,0.1625,0.1627,0.1626,0.1631,0.1613,0.1611,0.1609,0.1603,0.16,0.163,0.163,0.163,0.163,0,0.1566,0.1567,0.1563,0.157,0.1572,0.157,0.1581,0.1581,0.1588,0.1595,0.1593,0.16,0.1603,0.1603,0.161,0.16,0.1603,0.1611,0.1621,0.1605,0.1599,0.1597,0.1628,0.1629,0.1629,0.1629,0,0,0.1536,0.155,0.1549,0.1552,0.1561,0.1561,0.1559,0.1563,0.1563,0.1567,0.1565,0.1567,0.1574,0.1577,0.1585,0.1581,0.1567,0.159,0.159,0.1584,0.1555,0.1549,0.1546,0.1573,0.1572,0.1572,0.1554,0,0.152,0.1517,0.1528,0.1523,0.1523,0.1536,0.1534,0.1539,0.1546,0.1546,0.1553,0.1554,0.1564,0.1565,0.1563,0.1569,0.1561,0.1571,0.157,0.157,0.1568,0.1543,0.1536,0.1519,0.1552,0.1552,0.1552,0,0.15,0.1504,0.1499,0.1508,0.1508,0.1506,0.151,0.1511,0.1517,0.1522,0.1524,0.1533,0.1531,0.1542,0.1539,0.1545,0.1546,0.1549,0.1548,0.1548,0.1559,0.1541,0.1514,0.1511,0.1549,0.1549,0.1549,0,0.1478,0.1482,0.1479,0.1482,0.1492,0.1491,0.1495,0.1501,0.1503,0.1506,0.1507,0.151,0.1511,0.1513,0.1522,0.1529,0.1518,0.1529,0.1521,0.1521,0.1518,0.1517,0.1489,0.1519,0.1519,0.1519,0.1519,0,0.1458,0.1454,0.1469,0.1467,0.1463,0.1475,0.1471,0.1476,0.1482,0.1481,0.1493,0.1491,0.1504,0.1504,0.1511,0.1507,0.1508,0.1511,0.1513,0.151,0.1509,0.151,0.1511,0.1518,0.1519,0.1519,0.1519,0,0.1432,0.1442,0.144,0.1451,0.1453,0.1449,0.1458,0.1457,0.1464,0.1462,0.1463,0.1473,0.1474,0.1484,0.1486,0.1491,0.1484,0.1488,0.1482,0.1483,0.1474,0.1474,0.1444,0.1441,0.1473,0.1473,0.1473,0,0.1418,0.1416,0.1426,0.1426,0.143,0.1431,0.1432,0.1444,0.1445,0.1451,0.1449,0.145,0.1452,0.1453,0.146,0.1462,0.1466,0.1456,0.1467,0.1463,0.1465,0.1465,0.1464,0.1453,0.1453,0.1452,0.1452,0,0.1393,0.1398,0.14,0.1403,0.1405,0.1408,0.1412,0.1411,0.1424,0.1425,0.1426,0.1427,0.143,0.1431,0.1434,0.1438,0.1447,0.1449,0.1447,0.1443,0.1439,0.144,0.1475,0.1449,0.1449,0.145,0.145,0.145,0.1372,0.137,0.1377,0.1378,0.1383,0.1386,0.1385,0.1392,0.1393,0.1396,0.1403,0.1403,0.1408,0.1414,0.1417,0.1417,0.1422,0.1419,0.1418,0.1417,0.1415,0.144,0.1417,0.1417,0.1417,0.1418,0.1418,0,0.1346,0.1351,0.1352,0.1358,0.1359,0.1368,0.1372,0.1372,0.1372,0.1377,0.1379,0.1379,0.1381,0.1388,0.139,0.1388,0.1392,0.1388,0.1388,0.1389,0.1411,0.1412,0.1385,0.1385,0.1385,0.1385,0.1385,0.1385,0.1332,0.1329,0.1335,0.1334,0.1339,0.1339,0.1341,0.1344,0.1348,0.1348,0.135,0.1355,0.1361,0.1363,0.1364,0.1367,0.1366,0.1361,0.1364,0.1384,0.1387,0.139,0.1391,0.1361,0.1361,0.1342,0.1342,0.1342]},{"header":{"parameterUnit":"m.s-1","parameterCategory":1,"la1":30.2991,"la2":30.254,"lo1":-89.0895,"lo2":-89.0444,"dy":0.0017,"dx":0.0017,"nx":28,"ny":28,"refTime":"2025-02-04T03:00:00:Z","depth":0,"parameterNumber":3,"parameterNumberName":"V-component_of_WINDS"},"data":[0,0,0,0,0,0,0,0,0,0,0,0,0,0,0,0,0,0,0,0,0,0,0,0,0,0,0,0,0,0,0,0,0,0,0,0,0,0,0,0,0,0,0,0,0,0,0,0,0,0,0,0,0,0,0,0,0,0,0.5744,0.5744,0,0.5736,0.5736,0.5736,0.5739,0.5739,0.5739,0.5739,0.573,0.573,0.5729,0,0,0,0,0,0,0,0,0,0,0,0,0,0.5763,0.5763,0.5744,0.5744,0.5744,0.5736,0.5736,0.5736,0.5739,0.5739,0.5739,0.5739,0.573,0.573,0.5729,0,0,0,0,0,0,0,0,0,0,0,0,0,0.5755,0.5763,0.5744,0.5745,0.5745,0.5736,0.5736,0.5736,0.5739,0.5739,0.5739,0.5739,0.573,0.573,0.5729,0.572,0,0,0.5727,0.5727,0,0,0,0,0,0,0,0,0.5755,0.5754,0.5745,0.5745,0.5745,0.5739,0.5739,0.573,0.5739,0.5741,0.5739,0.574,0.5733,0.5732,0.573,0.5719,0.5719,0.5727,0.5727,0.5726,0.5726,0,0,0,0,0,0,0,0.5756,0.5755,0.5741,0.5745,0.5745,0.5745,0.5744,0.5738,0.5735,0.5741,0.5741,0.574,0.5733,0.573,0.5729,0.5719,0.5727,0.5727,0.5726,0.5726,0.5702,0.5702,0,0,0,0,0,0,0.5757,0.5755,0.5741,0.5741,0.5751,0.5745,0.5744,0.574,0.5735,0.5735,0.574,0.574,0.5731,0.573,0.5729,0.5719,0.5726,0.5726,0.5726,0.5702,0.5702,0.5702,0,0,0,0,0,0,0.5757,0.5755,0.5742,0.5748,0.5746,0.5744,0.574,0.574,0.5738,0.5735,0.5734,0.5738,0.5731,0.573,0.5722,0.5719,0.5726,0.5725,0.5703,0.5702,0.5702,0.5698,0,0,0,0,0,0,0.5757,0.5755,0.5752,0.5748,0.5746,0.5735,0.574,0.574,0.5737,0.5737,0.5733,0.5732,0.5731,0.5723,0.5722,0.5718,0.5725,0.5703,0.5702,0.5702,0.5698,0.5697,0.5696,0,0,0,0,0,0.5758,0.575,0.5751,0.575,0.5741,0.5735,0.5734,0.5733,0.5736,0.5733,0.5731,0.5732,0.5719,0.5723,0.5721,0.5717,0.5703,0.5702,0.5702,0.5699,0.5697,0.5696,0,0,0,0,0,0,0.5753,0.575,0.5751,0.5742,0.5739,0.5735,0.5731,0.5732,0.5728,0.5728,0.5728,0.5727,0.5719,0.5717,0.5721,0.5708,0.5712,0.5711,0.571,0.5709,0.5708,0.5709,0.5724,0,0,0,0,0,0.5751,0.5746,0.5743,0.5736,0.5734,0.5733,0.573,0.573,0.5727,0.5725,0.5723,0.5719,0.5715,0.5711,0.5707,0.5698,0.5698,0.5694,0.5693,0.5693,0.5692,0.5688,0.5687,0.57,0.57,0.57,0,0,0.5746,0.5744,0.5741,0.5735,0.5732,0.5727,0.5731,0.5726,0.5722,0.5724,0.5717,0.5715,0.5712,0.5704,0.57,0.5702,0.5689,0.5692,0.5691,0.5691,0.5688,0.5687,0.5685,0.5699,0.5699,0.5699,0,0,0.5736,0.5733,0.5727,0.5725,0.5721,0.5721,0.5719,0.5716,0.5715,0.5708,0.571,0.5706,0.5698,0.5695,0.5693,0.5683,0.5684,0.5682,0.5677,0.5674,0.5673,0.5672,0.5669,0.5668,0.5681,0.5681,0.5681,0,0.573,0.5723,0.5723,0.5718,0.5716,0.5718,0.5712,0.571,0.5705,0.5703,0.5705,0.5696,0.5693,0.5686,0.5684,0.5681,0.568,0.5682,0.5673,0.5672,0.5671,0.5668,0.5667,0.5681,0.5681,0.5681,0.5681,0,0.5717,0.5713,0.5708,0.5704,0.5701,0.5696,0.5695,0.5692,0.5693,0.5693,0.5686,0.5683,0.5679,0.5677,0.5677,0.567,0.5671,0.5673,0.5676,0.567,0.5667,0.5666,0.568,0.568,0.568,0.568,0,0,0.5703,0.57,0.5698,0.5697,0.5694,0.5691,0.5686,0.5682,0.568,0.5676,0.5673,0.5666,0.5668,0.5666,0.5666,0.5663,0.5657,0.5665,0.5665,0.5664,0.5649,0.5648,0.5647,0.5657,0.5657,0.5657,0.565,0,0.5693,0.5684,0.5685,0.5677,0.5673,0.5675,0.5671,0.5669,0.5668,0.5665,0.5665,0.566,0.5663,0.5662,0.5659,0.5658,0.5654,0.5658,0.5654,0.5654,0.5655,0.5645,0.5644,0.5637,0.5649,0.5648,0.5648,0,0.5679,0.5677,0.5668,0.5667,0.5666,0.5662,0.5659,0.5656,0.5654,0.5654,0.5652,0.5653,0.5648,0.5652,0.5646,0.5649,0.5648,0.5647,0.5647,0.5647,0.5651,0.5646,0.5635,0.5634,0.5647,0.5647,0.5647,0,0.5671,0.5665,0.566,0.5658,0.5657,0.5654,0.5653,0.5652,0.565,0.5647,0.5646,0.5643,0.5641,0.5639,0.564,0.5642,0.5634,0.5637,0.5634,0.5634,0.5632,0.5632,0.5622,0.563,0.563,0.563,0.563,0,0.566,0.5655,0.5656,0.5653,0.5648,0.5649,0.5644,0.5643,0.5642,0.5639,0.564,0.5638,0.5638,0.5635,0.5636,0.5631,0.563,0.563,0.5631,0.563,0.5631,0.563,0.563,0.563,0.563,0.563,0.563,0,0.5649,0.5649,0.5644,0.5643,0.5643,0.5639,0.5639,0.5636,0.5636,0.5632,0.5632,0.5632,0.5629,0.5629,0.5625,0.5625,0.562,0.5621,0.5621,0.5621,0.5618,0.5619,0.5607,0.5605,0.5615,0.5615,0.5615,0,0.5642,0.5638,0.5638,0.5636,0.5635,0.5632,0.5631,0.5632,0.563,0.5629,0.5626,0.5623,0.5621,0.5616,0.5616,0.5614,0.5614,0.5611,0.5614,0.5614,0.5615,0.5616,0.5616,0.561,0.561,0.561,0.561,0,0.563,0.5631,0.5629,0.5627,0.5625,0.5623,0.5622,0.562,0.5622,0.562,0.5617,0.5615,0.5612,0.561,0.5608,0.5607,0.5609,0.5609,0.5608,0.5608,0.5608,0.5609,0.562,0.5609,0.5609,0.5609,0.5609,0.5609,0.5622,0.5619,0.5619,0.5616,0.5615,0.5614,0.5612,0.5612,0.561,0.5608,0.5609,0.5606,0.5605,0.5603,0.5602,0.56,0.5601,0.56,0.56,0.5599,0.5599,0.5609,0.5599,0.5599,0.5599,0.5599,0.5599,0,0.561,0.561,0.5608,0.5607,0.5605,0.5607,0.5606,0.5605,0.5602,0.5602,0.56,0.5597,0.5595,0.5595,0.5593,0.5592,0.5592,0.5591,0.5591,0.5591,0.5598,0.5599,0.5591,0.5591,0.5591,0.5591,0.5591,0.5591,0.5604,0.5601,0.5602,0.5598,0.5598,0.5595,0.5594,0.5594,0.5593,0.559,0.5589,0.5589,0.5589,0.5587,0.5585,0.5586,0.5585,0.5584,0.5584,0.559,0.5591,0.5592,0.5593,0.5583,0.5583,0.5578,0.5578,0.5578]}]]